Home   Weather   Cayenne   Past weeks

Flag for French Guiana Past Weather in Cayenne, French Guiana — Yesterday and Last 2 Weeks

Now
88 °F

Passing clouds.


Feels Like: 96 °F
Forecast: 77 / 86 °F
Wind: 10 mph from Northeast

Location: Cayenne / Rochambeau

Current Time: Dec 4, 2016 at 3:32:08 pm

Latest Report: Dec 4, 2016 at 3:00 pm


Visibility: N/A

Pressure: 29.83 "Hg

Humidity: 62%

Dew Point: 73 °F

Location of CayenneLocation

Past Weather in Cayenne — Graph

°F

Cayenne Temperature Yesterday

Maximum temperature yesterday: 88 °F (at 11:30 am)
Minimum temperature yesterday: 72 °F (at 5:30 am)
Average temperature yesterday: 80 °F

High & Low Weather Summary for the Past Weeks

 TemperatureHumidityPressure
High91 °F (Nov 21, 12:00 pm)100% (Nov 20, 1:00 am)29.95 "Hg (Nov 20, 1:00 am)
Low70 °F (Nov 25, 6:30 am)52% (Nov 21, 12:00 pm)29.71 "Hg (Nov 19, 4:00 pm)
Average81 °F82%29.83 "Hg
* Reported Nov 19 2:00 pm — Dec 4 2:00 pm, Cayenne, Weather by CustomWeather, © 2016

Note: Actual official high and low records may vary slightly from our data, if they occured in-between our weather recording intervals... More about our weather records

Advertising

Cayenne Weather History for the Previous 24 Hours

Scroll right to see more
 ConditionsComfort  
Time TempWeatherWind HumidityBarometerVisibility
2:00 pm
Sun, Dec 4
90 °FPartly sunny.10 mph59%29.83 "HgN/A
1:30 pm90 °FPassing clouds.9 mph59%29.86 "HgN/A
1:00 pm90 °FPartly sunny.10 mph63%29.86 "HgN/A
12:30 pm88 °FPartly sunny.10 mph62%29.89 "HgN/A
12:00 pm90 °FPartly sunny.10 mph59%29.89 "HgN/A
11:30 am90 °FPassing clouds.10 mph59%29.92 "HgN/A
11:00 am88 °FPassing clouds.12 mph59%29.92 "HgN/A
10:30 am88 °FPassing clouds.12 mph62%29.92 "HgN/A
10:00 am86 °FPassing clouds.10 mph66%29.92 "HgN/A
9:30 am86 °FScattered clouds.9 mph70%29.92 "HgN/A
9:00 am84 °FPassing clouds.3 mph74%29.89 "HgN/A
8:30 am81 °FSunny.No wind89%29.89 "Hg10 mi
8:00 am77 °FSunny.No wind94%29.89 "Hg10 mi
7:30 am75 °FPassing clouds.No wind100%29.86 "HgN/A
7:00 am73 °FPassing clouds.No wind100%29.86 "HgN/A
6:30 am73 °FPassing clouds.No wind100%29.86 "HgN/A
6:00 am73 °FPassing clouds.No wind100%29.83 "HgN/A
5:30 am73 °FClear.No wind100%29.83 "Hg10 mi
5:00 am73 °FPassing clouds.No wind100%29.83 "HgN/A
4:30 am73 °FPartly cloudy.No wind100%29.83 "HgN/A
4:00 am73 °FClear.No wind100%29.83 "Hg10 mi
3:30 am75 °FClear.No wind94%29.83 "Hg10 mi
3:00 am75 °FMild.No wind100%29.83 "HgN/A
2:30 am73 °FPassing clouds.No wind100%29.83 "HgN/A
2:00 am75 °FClear.No wind94%29.86 "Hg10 mi
1:30 am75 °FPassing clouds.No wind100%29.86 "HgN/A
1:00 am75 °FPassing clouds.No wind100%29.86 "HgN/A
12:30 am75 °FPassing clouds.No wind100%29.86 "HgN/A
11:30 pm
Sat, Dec 3
77 °FPassing clouds.2 mph94%29.86 "HgN/A
11:00 pm77 °FClear.No wind94%29.86 "Hg10 mi
10:30 pm79 °FClear.2 mph89%29.86 "Hg10 mi
10:00 pm79 °FPassing clouds.2 mph94%29.86 "HgN/A
9:30 pm81 °FPassing clouds.2 mph89%29.86 "HgN/A
9:00 pm81 °FClear.2 mph89%29.86 "Hg10 mi
8:30 pm81 °FClear.5 mph84%29.86 "Hg10 mi
8:00 pm82 °FClear.6 mph79%29.83 "Hg10 mi
7:30 pm82 °FClear.6 mph84%29.83 "Hg10 mi
7:00 pm82 °FClear.7 mph84%29.83 "Hg10 mi
6:30 pm82 °FClear.8 mph79%29.83 "Hg10 mi
6:00 pm84 °FScattered clouds.7 mph79%29.83 "HgN/A
5:30 pm86 °FMore clouds than sun.7 mph75%29.80 "HgN/A
5:00 pm88 °FPartly sunny.6 mph66%29.80 "HgN/A
4:30 pm88 °FPassing clouds.7 mph66%29.80 "HgN/A
4:00 pm88 °FPassing clouds.6 mph62%29.80 "HgN/A
3:30 pm88 °FPassing clouds.9 mph66%29.83 "HgN/A
3:00 pm86 °FPartly sunny.10 mph70%29.83 "HgN/A
Weather by CustomWeather, © 2016

See weather overviewHow to use our weather pages